LEOIR Weather Reports


time (UTC)temp
C
wind
direction
speed
KPH
gust
KPH
rain 1hr
cm
rain 24hr
cm
rain mn
cm
humidity
%
barometer
mb
20260506154557 27 94 0.0 17.7 0.00 0.00 0.00 32 1003.2
20260506153056 28 75 0.0 6.4 0.00 0.00 0.00 31 1003.2
20260506151607 28 33 0.0 16.1 0.00 0.00 0.00 32 1003.1
20260506150052 28 29 0.0 1.6 0.00 0.00 0.00 32 1003.0
20260506144551 28 37 0.0 4.8 0.00 0.00 0.00 32 1003.0
20260506143054 27 306 0.0 4.8 0.00 0.00 0.00 33 1003.1
20260506141550 27 24 0.0 3.2 0.00 0.00 0.00 33 1003.1
20260506134548 27 58 0.0 4.8 0.00 0.00 0.00 33 1003.1
20260506133050 27 54 0.0 9.7 0.00 0.00 0.00 32 1003.0
20260506131552 28 16 0.0 1.6 0.00 0.00 0.00 31 1003.0
20260506130053 28 32 0.0 4.8 0.00 0.00 0.00 31 1002.9
20260506124542 28 27 0.0 9.7 0.00 0.00 0.00 32 1003.0
20260506123041 28 60 0.0 8.0 0.00 0.00 0.00 30 1003.2
20260506121541 28 287 0.0 8.0 0.00 0.00 0.00 31 1003.2
20260506120044 28 342 0.0 12.9 0.00 0.00 0.00 30 1003.2
20260506114542 28 72 0.0 6.4 0.00 0.00 0.00 29 1003.2
20260506113035 28 323 0.0 6.4 0.00 0.00 0.00 30 1003.1
20260506111535 27 318 0.0 8.0 0.00 0.00 0.00 29 1003.0
20260506110036 27 15 1.6 8.0 0.00 0.00 0.00 29 1003.2
20260506104528 27 352 1.6 9.7 0.00 0.00 0.00 30 1003.3
20260506103026 27 326 0.0 6.4 0.00 0.00 0.00 30 1003.3
20260506101542 27 27 0.0 14.5 0.00 0.00 0.00 31 1003.5
20260506100022 26 35 0.0 11.3 0.00 0.00 0.00 31 1003.5
20260506094521 26 316 0.0 16.1 0.00 0.00 0.00 32 1003.6
20260506093022 26 316 1.6 12.9 0.00 0.00 0.00 32 1003.5
20260506091521 26 80 0.0 4.8 0.00 0.00 0.00 31 1003.4
20260506090015 26 83 0.0 11.3 0.00 0.00 0.00 33 1003.3
20260506084518 25 52 0.0 11.3 0.00 0.00 0.00 33 1003.2
20260506083008 25 312 1.6 12.9 0.00 0.00 0.00 33 1003.4
20260506081508 25 81 0.0 6.4 0.00 0.00 0.00 34 1003.4
20260506073053 23 347 0.0 6.4 0.00 0.00 0.00 36 1003.5
20260506071604 23 14 1.6 9.7 0.00 0.00 0.00 37 1003.6
20260506061531 21 324 0.0 3.2 0.00 0.00 0.00 38 1003.6
20260506044502 16 13 0.0 0.0 0.00 0.00 0.00 45 1004.5
20260506043059 16 13 0.0 0.0 0.00 0.00 0.00 44 1004.5
20260506041605 16 13 0.0 0.0 0.00 0.00 0.00 44 1004.7
20260506040052 15 13 0.0 0.0 0.00 0.00 0.00 46 1004.8
20260506034548 14 13 0.0 0.0 0.00 0.00 0.00 48 1004.9
20260506033043 13 13 0.0 0.0 0.00 0.00 0.00 50 1004.9
20260506031540 13 13 0.0 0.0 0.00 0.00 0.00 50 1005.0
20260506030037 13 13 0.0 0.0 0.00 0.00 0.00 50 1005.1
20260506024540 13 13 0.0 0.0 0.00 0.00 0.00 51 1005.1
20260506023033 13 13 0.0 0.0 0.00 0.00 0.00 51 1005.1
20260506021532 13 13 0.0 0.0 0.00 0.00 0.00 50 1005.0
20260506020029 13 13 0.0 0.0 0.00 0.00 0.00 50 1005.0
20260506014541 13 13 0.0 0.0 0.00 0.00 0.00 49 1005.1
20260506013027 13 13 0.0 0.0 0.00 0.00 0.00 49 1005.0
20260506011520 13 13 0.0 0.0 0.00 0.00 0.00 49 1005.0
20260506010024 14 13 0.0 0.0 0.00 0.00 0.00 49 1004.9
20260506004519 14 13 0.0 0.0 0.00 0.00 0.00 48 1004.9
20260506003011 15 13 0.0 0.0 0.00 0.00 0.00 48 1004.9
20260506001509 15 13 0.0 0.0 0.00 0.00 0.00 47 1004.8
20260506000015 15 13 0.0 0.0 0.00 0.00 0.00 46 1004.8
20260505234513 15 13 0.0 0.0 0.00 0.00 0.00 46 1004.8
20260505233001 15 13 0.0 0.0 0.00 0.00 0.00 45 1004.8
20260505231559 15 13 0.0 0.0 0.00 0.00 0.00 45 1004.9
20260505230115 16 13 0.0 0.0 0.00 0.00 0.00 44 1004.8
20260505224553 16 13 0.0 0.0 0.00 0.00 0.00 43 1004.8
20260505223057 16 13 0.0 0.0 0.00 0.00 0.00 43 1004.9
20260505221552 16 13 0.0 0.0 0.00 0.00 0.00 42 1004.8
20260505220044 17 13 0.0 0.0 0.00 0.00 0.00 41 1004.8
20260505214557 17 13 0.0 0.0 0.00 0.00 0.00 40 1004.9
20260505213053 17 13 0.0 0.0 0.00 0.00 0.00 40 1004.9
20260505211542 18 13 0.0 0.0 0.00 0.00 0.00 40 1004.9
20260505210041 18 13 0.0 0.0 0.00 0.00 0.00 38 1005.0
20260505204540 18 13 0.0 0.0 0.00 0.00 0.00 38 1005.0
20260505203046 19 13 0.0 0.0 0.00 0.00 0.00 38 1004.9
20260505201549 19 13 0.0 0.0 0.00 0.00 0.00 37 1005.0
20260505200040 20 13 0.0 0.0 0.00 0.00 0.00 37 1004.9
20260505194541 20 13 0.0 0.0 0.00 0.00 0.00 37 1004.8
20260505193045 20 15 0.0 1.6 0.00 0.00 0.00 37 1004.8
20260505191549 21 47 0.0 0.0 0.00 0.00 0.00 36 1004.7
20260505190041 21 47 0.0 0.0 0.00 0.00 0.00 36 1004.7
20260505184537 22 47 0.0 0.0 0.00 0.00 0.00 35 1004.7
20260505183047 22 47 0.0 0.0 0.00 0.00 0.00 36 1004.6
20260505181536 23 47 0.0 0.0 0.00 0.00 0.00 36 1004.5
20260505180040 23 47 0.0 0.0 0.00 0.00 0.00 34 1004.5
20260505174540 24 47 0.0 0.0 0.00 0.00 0.00 32 1004.4
20260505173039 25 47 0.0 0.0 0.00 0.00 0.00 30 1004.4
20260505171539 26 47 0.0 0.0 0.00 0.00 0.00 28 1004.4
20260505170034 26 47 0.0 0.0 0.00 0.00 0.00 26 1004.4
20260505164536 27 47 0.0 0.0 0.00 0.00 0.00 25 1004.4
20260505163032 28 47 0.0 1.6 0.00 0.00 0.00 23 1004.5
20260505161529 27 46 0.0 0.0 0.00 0.00 0.00 23 1004.5